Lapse_Rate
1.9 1.8 0.9 3.4 6.4 6.5 6.5 6.5 6.5 6.5 6.5 5.5 5.2 5.2 6.1 5.0 6.4 6.4 -1.5 -2.0 -2.9 -2.7 -2.3 -0.9 -0.1 0.2 0.1 0.1 0.7 0.7 0.7 0.8 0.9 1.0 1.2 1.6 1.9 2.2 2.1 2.3 2.8 3.5 4.0 4.1 4.1 4.2 4.4 4.5 4.7
2.1 2.5 3.4 4.4 6.5 6.5 6.5 6.5 6.5 6.5 6.0 4.4 4.6 5.3 5.9 6.5 4.7 3.8 0.8 -1.7 -2.6 -2.8 -2.4 -1.9 -0.6 -0.2 -0.3 -0.2 0.1 0.3 0.3 0.5 0.6 0.8 1.2 1.5 1.7 1.9 2.2 2.3 2.7 3.5 4.2 4.4 4.6 4.6 4.8 4.9 4.9
3.4 4.8 4.8 6.5 6.5 6.5 6.5 6.5 6.5 6.2 4.6 5.4 5.9 5.9 5.1 5.9 4.4 2.6 0.9 -2.2 -3.3 -3.1 -2.5 -2.3 -1.1 -0.9 -0.3 -0.2 -0.1 0.1 0.2 0.3 0.3 0.5 0.8 1.2 1.5 1.7 2.1 2.3 2.7 3.2 3.9 4.6 5.1 5.3 5.5 5.4 5.3
3.5 4.0 4.3 6.5 6.5 6.5 6.5 6.5 6.5 6.4 5.1 4.8 5.4 6.5 5.6 5.1 3.4 2.5 -1.6 -2.5 -2.8 -3.0 -2.7 -2.0 -1.2 -1.1 -0.5 -0.0 -0.2 -0.2 0.1 0.2 0.4 0.6 0.9 1.1 1.5 1.4 1.6 2.0 2.4 2.9 3.8 4.5 4.9 5.3 5.8 6.0 6.0
3.4 3.8 6.5 6.5 6.5 6.5 6.5 5.9 5.6 6.5 6.2 5.5 5.8 6.3 6.0 5.2 3.3 -0.2 -1.8 -2.1 -2.8 -3.7 -3.3 -2.2 -1.4 -1.4 -0.9 -0.3 -0.1 -0.1 0.1 0.1 0.4 0.8 1.0 1.5 1.4 1.5 1.7 2.0 2.3 2.8 3.4 3.9 4.5 5.0 5.4 5.9 6.5
4.4 4.4 6.5 6.5 6.5 6.5 6.5 4.5 6.0 6.3 6.1 5.3 6.0 5.5 5.1 3.9 3.2 -0.2 -2.1 -3.0 -2.5 -3.1 -3.6 -2.7 -1.2 -1.3 -0.8 -0.5 -0.1 -0.1 -0.0 0.2 0.4 0.8 1.1 1.4 1.5 1.6 1.7 2.2 2.5 3.0 3.3 3.6 4.2 4.8 5.1 5.3 5.6
6.1 6.5 6.5 6.5 6.5 6.5 6.5 4.9 6.3 6.3 6.2 6.1 5.4 6.5 5.2 4.9 2.6 -1.0 -2.0 -2.4 -2.3 -2.6 -3.2 -3.2 -1.8 -1.1 -0.5 -0.1 0.1 -0.1 -0.0 0.1 0.4 0.7 1.0 1.3 1.6 1.7 1.9 2.2 2.7 3.1 3.5 3.7 4.0 4.5 4.8 5.1 5.3
4.1 6.5 6.5 6.5 6.5 6.5 6.2 5.9 5.0 5.4 6.4 6.5 6.1 6.5 5.8 4.9 1.6 -1.1 -1.6 -1.7 -2.5 -3.2 -3.3 -3.6 -3.2 -1.9 -1.3 -0.9 0.1 0.4 0.3 0.1 0.3 0.5 0.9 1.3 1.6 1.8 2.1 2.2 2.5 3.1 3.5 3.9 3.9 4.1 4.6 5.0 5.0
4.5 6.5 6.5 6.5 6.5 6.5 6.0 6.4 5.4 6.2 5.9 5.7 6.1 5.1 5.2 4.5 1.4 0.4 0.1 -1.2 -1.9 -2.5 -3.8 -3.6 -2.9 -2.5 -2.0 -1.6 -0.5 0.5 0.7 0.5 0.5 0.7 1.0 1.2 0.8 1.2 1.7 2.0 2.4 3.2 3.4 3.9 4.2 4.3 4.6 4.9 5.1
6.1 6.5 6.5 6.5 6.6 6.5 6.2 6.3 5.6 6.2 5.9 5.7 4.8 3.1 4.8 5.5 5.2 3.7 1.5 0.3 -1.3 -1.6 -2.5 -3.2 -2.9 -2.5 -2.3 -0.9 -1.4 -0.3 -0.3 0.1 -0.1 0.2 0.2 -0.2 -0.4 -0.1 0.8 1.9 2.8 3.3 3.7 3.9 4.1 4.6 4.7 5.1 4.0
5.6 6.5 6.5 6.3 5.7 5.9 6.4 6.0 6.2 6.3 6.5 5.4 4.6 4.2 5.5 5.6 4.2 3.8 2.4 1.1 0.4 0.8 -1.2 -2.4 -2.9 -2.7 -2.7 -1.5 -2.3 -1.6 -1.4 -1.0 -1.0 -1.0 -0.7 -0.6 -0.4 0.3 1.0 0.7 2.1 2.2 3.5 2.8 3.8 4.2 3.9 3.8 3.5
6.5 6.2 6.3 6.1 6.2 6.4 6.5 6.2 6.1 5.8 6.1 5.8 5.8 5.2 4.8 4.8 3.2 2.1 2.1 1.4 1.0 0.0 -0.0 -1.1 -2.2 -2.3 -2.9 -1.8 -1.9 -1.4 -1.7 -1.5 -1.3 -1.2 -1.3 -1.4 -0.8 -0.2 0.3 0.1 0.3 0.9 1.6 2.0 2.4 2.7 2.8 3.0 3.4
6.5 6.5 6.2 6.0 5.7 5.9 6.3 6.3 6.4 6.3 6.4 6.1 6.1 5.8 4.8 3.9 3.3 2.6 1.5 1.5 0.7 0.6 0.8 -0.5 -2.3 -2.7 -2.8 -2.8 -2.0 -2.3 -1.9 -1.6 -1.2 -1.3 -1.6 -0.8 -1.0 -0.6 -0.3 -0.1 -0.3 0.4 1.0 1.2 2.1 2.2 2.4 2.9 3.5
6.2 6.0 5.9 5.5 5.3 5.9 6.4 6.4 6.2 6.3 6.1 6.1 6.2 5.7 5.4 4.3 3.5 2.5 1.4 1.0 0.4 -0.2 -0.8 -1.0 -2.4 -2.3 -2.4 -3.0 -2.2 -2.5 -1.9 -1.7 -1.5 -1.5 -1.5 -0.8 -1.1 -0.7 -0.5 -0.3 0.0 0.2 0.4 1.3 2.1 2.2 2.6 3.1 3.6
5.9 6.5 6.5 6.4 6.1 6.4 5.8 6.5 6.5 6.5 6.6 6.5 6.4 6.2 5.7 4.9 3.2 1.9 2.1 1.2 1.0 1.1 -0.2 -2.5 -1.7 -1.8 -2.6 -2.8 -2.7 -2.0 -1.8 -1.8 -1.9 -1.1 -1.2 -1.7 -2.0 -1.2 -0.4 0.0 0.3 0.4 0.9 1.7 1.6 2.3 2.5 3.1 3.4
6.5 6.5 6.5 6.5 6.6 6.2 6.2 6.5 6.5 5.1 5.7 6.2 6.2 6.2 5.4 3.3 2.7 2.2 1.1 0.1 -0.2 -0.9 -1.2 -1.7 -1.4 -2.9 -2.5 -2.3 -2.6 -2.5 -2.5 -1.9 -1.7 -1.8 -2.2 -1.8 -1.9 -0.7 -0.5 -0.0 0.3 0.5 1.0 1.2 2.0 2.4 2.9 3.5 3.7
6.5 6.5 6.5 6.5 6.5 6.5 6.5 6.5 6.5 6.0 5.1 5.3 4.4 4.1 4.2 4.8 2.9 1.1 1.2 0.9 0.3 -0.0 -0.8 -1.2 -4.0 -3.0 -3.3 -2.9 -2.5 -3.0 -3.1 -2.4 -1.7 -2.1 -2.5 -1.0 -1.0 0.5 0.1 0.1 0.8 1.1 2.2 2.2 2.2 2.6 3.6 3.7 3.7
6.5 6.5 6.5 6.5 6.5 6.5 6.5 6.5 6.5 5.7 5.9 6.0 4.4 4.1 3.7 3.6 2.5 2.3 1.7 1.2 1.4 -0.8 -2.4 -3.4 -4.3 -4.5 -4.6 -4.1 -3.6 -3.9 -4.0 -2.7 -3.0 -3.0 -2.3 -1.5 0.0 0.7 0.3 0.3 1.0 1.8 2.5 2.3 2.4 3.3 3.1 3.8 3.8
6.5 6.5 6.5 6.5 6.5 6.5 6.5 6.5 6.5 5.9 5.3 6.0 5.9 5.9 5.9 5.7 4.4 1.9 1.6 1.1 -0.2 -2.2 -2.7 -3.7 -4.1 -5.5 -4.6 -4.4 -4.3 -3.9 -3.0 -3.9 -3.8 -2.6 -1.4 -0.5 0.5 0.5 0.5 0.6 1.8 2.1 2.5 2.9 3.1 3.5 4.0 4.0 3.8
6.5 6.5 6.5 6.5 6.5 6.5 6.5 6.5 6.5 6.5 6.4 6.0 6.0 5.9 4.6 2.9 2.8 2.5 2.5 0.1 -0.7 -1.2 -2.7 -3.3 -4.3 -5.3 -4.3 -3.2 -3.9 -3.8 -3.9 -4.4 -3.2 -1.6 0.3 0.6 0.7 0.8 0.9 2.1 2.7 2.4 2.6 3.2 3.2 3.4 3.5 4.1 3.6
6.5 6.5 6.5 6.5 6.5 6.5 6.5 6.5 6.5 6.5 5.9 5.8 5.8 5.3 4.8 4.5 3.3 2.8 1.8 0.7 -0.0 -2.0 -2.5 -2.4 -3.9 -4.8 -4.5 -4.4 -4.5 -4.4 -3.7 -3.4 -2.5 -1.0 0.3 0.8 1.2 1.7 2.1 2.2 2.4 2.7 3.0 3.2 3.0 3.2 3.5 4.1 3.3
6.5 6.5 6.5 6.5 6.5 6.5 6.5 6.5 6.5 6.5 6.5 6.5 6.0 5.2 5.2 2.3 2.4 2.1 2.0 0.4 0.3 -1.2 -2.4 -3.0 -3.6 -4.4 -4.3 -4.3 -3.2 -2.2 -3.5 -3.4 -3.1 -1.1 -0.5 0.4 1.5 2.3 2.7 2.6 2.6 2.7 2.5 2.9 3.0 2.8 2.9 3.3 4.2
6.5 6.5 6.5 6.5 6.5 6.5 6.5 6.5 6.5 6.5 6.5 6.5 6.5 5.9 5.0 3.1 1.5 1.6 1.6 1.1 -1.4 -2.8 -4.0 -5.1 -4.7 -4.2 -3.5 -3.2 -2.7 -1.6 -1.5 -1.4 -1.2 -1.0 0.5 1.2 1.6 2.6 2.8 2.7 2.6 2.8 2.1 2.5 2.6 2.6 2.8 3.0 3.8
6.5 6.5 6.5 6.5 6.5 6.5 6.5 6.5 6.5 6.5 6.5 6.5 6.5 4.3 4.1 3.3 1.9 0.8 0.2 -1.4 -2.8 -2.6 -3.4 -3.1 -3.4 -2.9 -2.0 -1.7 -1.7 -1.4 -1.1 -0.5 -0.1 0.4 1.0 1.5 1.7 1.9 2.3 2.8 3.0 2.4 2.3 2.5 2.7 2.9 2.9 3.1 3.2
6.5 6.5 6.5 6.5 6.5 6.5 6.5 6.5 6.5 6.5 6.5 6.5 6.5 4.6 2.5 1.4 0.7 0.3 -0.3 -1.7 -0.3 0.0 -0.0 -0.9 -1.6 -2.1 -1.5 -1.0 -0.4 -0.1 0.6 1.0 0.7 1.2 1.5 1.9 1.7 2.0 2.2 1.7 1.9 2.2 2.6 3.2 3.1 3.0 3.3 3.3 3.3
6.5 6.5 6.5 6.5 6.5 6.5 6.5 6.5 6.5 6.5 6.5 5.4 4.7 3.0 2.4 1.3 0.4 0.1 -0.5 0.7 1.6 1.6 0.2 -0.5 -0.7 -1.2 -0.3 0.6 0.3 0.6 1.1 1.8 1.7 2.2 2.2 1.7 1.6 1.8 1.9 1.9 2.1 3.0 3.6 3.5 3.2 3.1 3.4 3.5 3.5
6.5 6.5 6.5 6.5 6.5 6.5 6.5 6.5 6.5 6.5 6.5 6.5 6.2 3.8 2.2 1.5 0.1 -0.6 1.2 2.0 1.7 0.4 -0.1 0.1 -0.1 0.2 0.8 0.8 1.0 1.1 1.5 1.9 1.7 1.1 1.6 2.0 2.0 2.3 2.2 2.5 3.0 3.5 3.7 3.8 3.6 3.5 3.9 3.6 3.7
6.5 6.5 6.5 6.5 6.5 6.5 6.5 6.5 6.5 6.5 6.5 6.5 6.5 6.3 3.5 2.2 1.8 2.5 2.5 1.9 1.1 0.6 0.7 0.8 0.8 1.0 1.3 1.5 1.9 1.9 1.6 1.6 1.3 1.8 1.9 2.0 2.0 2.5 2.6 2.8 3.4 3.6 3.9 4.1 3.9 3.7 3.9 3.8 3.8
6.5 6.5 6.5 6.5 6.5 6.5 6.5 6.5 6.5 6.5 6.5 6.5 6.5 6.2 4.6 2.3 5.2 4.0 3.0 1.8 1.3 1.5 1.6 1.5 2.0 2.2 2.1 2.0 1.9 1.9 1.6 1.6 1.7 2.0 2.0 2.2 2.1 2.6 3.4 3.7 4.0 4.1 4.2 4.0 3.7 3.7 3.9 4.0 3.9
6.5 6.5 6.5 6.5 6.5 6.5 6.5 6.5 6.5 6.5 6.5 6.5 6.5 5.4 4.7 5.9 5.3 4.2 3.1 2.4 2.3 2.4 2.8 2.5 2.5 2.7 2.3 2.2 2.1 1.9 1.8 1.9 1.9 1.9 2.1 2.2 2.6 3.1 3.9 4.2 4.6 4.8 4.3 3.9 4.0 4.4 4.5 4.3 4.4
Wind_Speed
4 6 1 2 3 4 3 6 2 4 3 4 2 6 10 6 7 5 5 9 10 16 19 22 24 23 22 21 20 21 20 21 21 21 21 20 19 19 18 16 14 12 10 9 9 8 6 5 4
6 4 1 1 4 2 5 4 4 5 3 8 7 2 4 5 4 2 3 7 9 15 19 21 26 25 24 23 22 22 23 23 23 23 22 21 20 19 18 17 15 13 10 9 8 7 6 5 4
5 2 2 3 4 5 5 4 3 4 7 5 2 1 3 3 2 3 2 10 10 12 18 21 28 26 24 24 23 22 22 22 23 23 23 21 20 19 17 17 15 13 11 8 7 6 5 4 4
4 3 3 2 6 6 6 6 0 6 6 6 5 2 3 4 7 6 10 10 12 11 15 21 26 25 24 24 24 24 23 22 21 21 21 21 20 18 17 16 15 14 11 9 8 6 5 4 4
2 3 1 2 5 6 5 5 3 6 4 3 1 3 2 3 3 7 10 9 11 10 12 19 26 26 26 25 24 24 24 23 21 21 20 19 18 17 17 15 14 13 12 10 8 7 6 6 7
2 3 0 5 5 5 7 7 2 3 4 7 4 4 2 2 4 4 8 7 6 7 8 12 23 24 24 25 26 26 25 23 22 22 21 20 17 18 17 15 14 13 12 11 9 8 7 8 7
5 4 4 3 3 4 6 4 4 3 3 4 1 2 3 2 7 8 8 7 7 7 6 5 14 20 22 23 25 25 24 23 23 22 22 20 20 18 17 15 14 14 12 11 10 9 7 6 6
4 4 2 5 5 6 4 4 7 6 3 3 2 4 5 3 7 7 7 5 5 6 9 10 7 15 17 18 24 23 23 24 23 22 22 22 20 18 17 16 15 15 14 13 11 10 8 7 7
4 2 5 6 7 5 2 4 4 4 5 2 2 7 5 2 7 5 2 3 4 5 6 6 7 7 11 14 16 21 23 22 22 22 23 21 16 16 16 15 16 16 15 14 12 11 9 7 8
5 5 10 6 7 4 3 2 8 6 7 3 3 5 4 2 2 5 5 8 5 6 9 11 11 11 9 10 12 16 15 17 17 18 19 16 15 15 15 15 17 17 15 14 12 11 9 8 5
7 10 8 6 6 3 5 8 3 10 6 6 10 7 5 4 5 6 7 9 11 9 4 13 13 13 13 12 7 7 11 11 13 16 17 14 13 13 13 10 11 11 13 9 9 8 7 5 5
6 12 13 6 5 3 6 5 8 11 10 10 14 11 6 11 9 9 10 10 9 8 12 9 13 12 13 9 9 10 8 6 8 13 16 9 7 6 6 4 7 7 9 5 7 5 6 6 7
13 6 8 10 6 6 6 16 14 21 11 12 14 15 12 11 12 10 10 8 8 9 13 13 11 14 13 13 9 9 11 11 11 9 15 13 9 8 6 5 5 6 7 6 4 4 4 4 5
2 5 11 6 7 4 8 17 7 11 8 14 15 17 15 12 12 10 8 9 7 11 12 12 13 15 12 13 15 12 11 11 9 9 11 16 9 7 7 6 5 4 5 6 4 3 4 4 4
3 5 3 6 4 8 7 22 31 16 12 17 20 20 17 16 11 12 11 9 11 11 9 10 14 12 14 17 15 12 11 10 10 9 13 19 16 10 8 6 4 3 6 7 3 3 2 3 3
5 5 12 14 11 6 9 31 16 9 16 22 22 14 13 13 13 10 11 10 10 9 10 9 8 12 15 15 13 10 10 9 9 10 9 15 16 14 8 8 6 7 7 4 3 3 3 4 3
4 14 6 4 9 7 18 33 2 5 8 11 10 13 13 17 12 10 10 10 10 10 10 10 9 12 15 14 10 11 10 9 8 7 7 11 13 15 10 8 8 7 4 2 5 2 3 3 3
6 3 2 4 7 15 15 28 11 13 16 16 13 14 14 13 12 9 11 12 11 10 9 10 7 10 9 6 6 4 5 7 6 7 8 13 9 12 9 8 5 5 4 4 3 3 2 2 2
4 3 3 3 1 4 14 19 14 9 11 14 18 19 21 20 15 10 11 12 12 10 10 10 5 7 7 5 7 5 9 6 6 6 11 12 11 12 11 6 7 7 6 5 5 3 3 3 3
7 0 3 5 8 4 4 11 14 13 16 17 18 16 14 9 8 11 15 10 11 12 11 10 9 7 9 8 4 3 5 3 4 6 8 11 12 10 11 8 7 8 5 5 4 4 2 3 4
4 4 3 6 7 13 10 18 14 15 14 16 16 16 16 16 15 15 11 11 12 10 11 8 8 8 7 6 7 4 6 5 3 5 5 6 9 10 10 10 8 7 5 5 5 5 5 3 2
7 4 2 2 1 5 3 13 19 18 20 17 15 16 17 11 15 14 12 11 14 13 7 8 7 8 8 10 7 10 3 5 3 5 4 6 8 8 8 8 8 7 4 5 4 4 3 3 3
7 9 9 8 7 4 5 5 17 5 8 11 16 19 16 16 10 13 13 13 11 8 8 8 5 7 10 9 10 7 6 4 5 6 8 7 5 5 7 8 8 6 4 4 5 4 4 3 3
5 5 4 2 3 4 8 9 24 7 13 15 9 11 12 11 9 10 9 6 6 5 1 4 8 7 9 10 10 11 12 10 9 9 7 5 4 4 6 7 6 5 4 4 4 4 5 5 3
5 5 2 1 2 8 10 11 23 7 9 6 8 9 9 8 9 8 5 1 3 3 5 7 9 8 7 9 9 10 11 12 12 10 6 6 4 2 4 5 5 3 4 5 4 4 4 4 4
6 7 4 6 5 5 6 11 7 12 13 8 7 10 9 10 7 3 3 3 4 7 6 7 10 10 8 8 9 9 10 8 9 9 7 5 3 5 5 5 5 5 5 4 4 2 3 4 3
3 4 7 2 3 1 5 6 7 15 13 11 9 9 12 11 4 4 6 5 4 6 7 7 10 9 9 9 9 9 9 9 9 8 7 5 5 4 5 5 5 5 4 4 4 3 4 3 4
4 3 2 1 4 5 5 5 6 9 4 8 10 10 12 3 7 8 6 6 4 6 7 8 9 10 8 9 9 7 8 8 9 8 8 7 6 5 6 5 5 5 4 4 4 3 3 4 3
3 3 2 3 5 3 3 5 6 8 4 6 14 19 11 8 10 10 7 6 6 6 7 8 10 10 9 10 9 10 8 8 7 7 6 6 5 6 5 5 4 3 4 4 3 4 5 5 4
3 3 5 4 6 4 4 6 7 3 8 12 15 10 5 9 13 12 8 9 8 8 7 8 8 10 8 9 9 9 8 7 7 6 6 5 6 5 5 4 2 3 4 4 4 4 4 5 6
Wind_Direction
182 138 100 53 72 62 245 258 235 289 310 293 165 144 172 160 164 211 329 165 133 144 160 167 170 170 172 171 170 166 166 160 156 153 151 152 154 154 153 153 154 158 161 158 152 147 140 135 124
127 117 19 101 112 123 259 257 224 224 236 310 318 50 134 201 197 268 121 187 143 151 163 169 175 175 176 177 175 174 172 166 163 159 159 159 161 159 159 159 159 163 169 168 163 158 159 156 150
121 73 103 166 158 193 219 196 239 266 270 205 245 274 162 196 178 193 217 149 133 159 169 173 178 178 181 182 179 179 177 172 170 164 163 166 167 164 164 164 165 166 173 176 178 178 184 185 192
121 34 17 134 223 250 199 204 343 298 313 171 185 166 279 196 158 172 137 136 147 166 171 179 180 179 184 186 185 181 182 180 176 170 170 172 170 168 170 170 172 172 176 183 190 201 212 221 231
13 77 225 235 258 275 243 250 247 287 277 273 99 212 197 333 71 122 127 149 162 168 178 181 182 184 187 188 191 187 186 182 181 178 175 179 175 173 177 179 181 181 184 192 199 212 228 250 258
73 106 157 231 238 277 279 238 209 242 256 310 125 158 255 346 138 137 121 144 153 176 172 187 192 191 192 190 192 192 188 185 185 183 181 183 181 182 181 185 190 195 193 197 207 219 233 247 254
144 129 212 241 223 246 249 237 199 225 24 10 225 90 261 311 174 144 145 143 147 156 171 189 196 195 199 204 200 195 189 188 188 187 186 184 186 188 184 189 198 203 205 205 210 224 239 258 268
139 135 218 223 208 246 240 293 178 140 235 186 96 64 316 315 106 110 101 127 157 177 183 185 192 198 203 203 205 202 197 192 190 190 190 188 188 189 189 196 203 206 211 213 215 220 228 236 248
129 126 215 214 183 249 314 321 204 199 199 115 197 164 221 17 88 85 119 159 186 206 199 202 196 207 203 201 210 207 205 199 195 195 194 190 187 188 193 197 204 209 211 215 220 216 213 223 241
171 181 215 204 201 242 262 311 326 329 345 196 288 265 214 305 69 231 235 236 216 220 215 195 199 201 198 207 199 205 204 204 201 199 197 190 181 181 186 198 206 213 216 219 216 216 212 217 214
198 221 211 226 213 256 267 305 268 305 318 286 292 306 314 4 295 225 250 234 229 232 210 205 205 201 194 204 191 198 200 202 202 201 196 187 181 186 187 189 204 208 219 222 218 220 211 208 215
214 223 217 224 179 223 259 303 288 279 266 292 287 284 289 280 254 248 243 245 237 226 232 215 207 204 210 197 202 200 199 200 205 204 194 183 180 176 187 187 195 202 207 205 205 205 202 210 226
235 215 210 227 225 242 276 257 255 264 265 261 269 276 270 263 262 257 230 233 234 236 237 220 190 204 203 200 203 202 208 206 204 198 195 188 180 190 180 190 183 208 205 197 197 206 200 208 221
81 213 238 239 241 228 250 269 252 247 245 265 268 267 262 253 249 257 256 245 216 217 231 228 205 210 195 202 204 206 208 208 202 200 190 191 184 181 192 183 205 215 201 201 205 191 206 215 212
265 279 265 221 203 235 198 267 250 250 249 254 254 260 266 253 249 240 247 235 236 252 249 211 210 202 196 204 206 207 208 198 199 201 193 186 177 180 171 186 202 211 198 219 182 205 195 222 229
190 174 237 232 186 221 158 259 261 208 223 246 257 254 251 259 242 248 245 237 244 241 244 235 206 193 203 208 205 207 203 198 200 194 185 184 177 164 169 185 179 191 196 175 193 185 193 221 219
251 235 214 249 206 182 190 249 203 264 255 256 268 272 264 270 271 256 259 260 262 263 263 266 197 205 204 206 199 197 190 197 195 185 174 174 172 178 187 181 194 199 190 207 173 176 181 207 233
202 169 158 190 200 198 219 248 259 271 270 271 265 267 267 266 258 262 268 274 275 269 256 250 224 217 195 174 168 174 173 191 175 171 164 164 182 184 178 185 165 154 169 175 156 179 183 223 254
44 97 63 342 231 353 235 254 260 264 271 267 266 264 267 270 280 273 269 272 281 275 267 259 226 208 167 167 166 177 197 177 165 163 156 174 180 182 184 164 166 158 185 182 177 132 187 227 218
271 234 237 276 267 231 275 275 277 255 260 258 262 266 261 258 262 267 265 267 265 264 267 260 231 176 181 177 169 150 139 143 143 144 172 177 182 167 172 172 186 162 152 169 161 158 175 227 197
189 201 187 222 291 285 300 286 270 264 245 253 253 253 253 247 254 260 266 263 273 262 261 263 220 182 179 154 125 92 90 96 123 165 161 176 165 169 166 162 156 160 163 175 172 175 176 195 188
238 180 270 329 171 257 37 289 273 272 264 255 251 247 250 230 242 251 255 268 266 268 269 257 216 180 160 155 150 158 141 146 157 161 147 152 148 162 165 144 141 156 154 170 181 172 168 159 188
236 177 207 221 257 283 254 311 278 202 261 263 252 256 250 243 232 251 250 257 279 290 279 263 184 149 150 149 144 141 121 105 127 124 129 115 116 149 139 143 151 145 154 167 170 161 178 183 177
202 183 157 82 137 250 218 197 276 226 243 243 259 250 251 258 256 252 259 286 297 306 266 138 125 123 138 140 143 138 136 136 129 130 128 125 123 127 130 133 131 144 148 162 182 183 184 192 190
184 115 123 107 198 230 187 188 236 261 302 239 266 270 258 254 255 261 255 231 262 202 152 128 115 107 114 126 129 132 137 134 129 130 128 134 112 120 135 120 137 139 160 186 178 179 200 193 195
192 167 168 174 192 213 209 229 249 240 246 285 276 263 273 267 255 234 139 143 153 140 103 108 112 111 104 110 109 107 114 120 125 139 142 126 128 134 147 134 141 160 182 182 186 187 202 204 214
178 176 210 356 289 88 215 280 299 278 273 294 302 285 266 252 196 157 149 134 125 103 91 105 103 96 103 111 110 103 109 119 126 116 116 125 127 136 142 151 155 173 181 185 191 202 217 195 208
175 199 132 308 208 234 253 253 233 305 350 330 317 299 276 192 150 152 133 123 97 95 98 88 95 108 112 105 107 111 109 109 118 124 127 131 139 133 139 140 157 178 192 197 198 214 214 223 223
170 261 230 186 182 209 301 275 229 242 65 324 342 332 289 162 160 147 128 108 103 92 95 99 102 105 100 106 111 110 108 108 107 114 129 135 124 136 144 153 163 185 214 219 202 231 217 220 218
351 269 201 191 251 258 112 289 292 3 33 358 338 332 359 155 150 139 127 116 105 103 104 107 106 105 106 106 104 102 106 108 110 117 130 136 130 136 133 147 168 239 246 221 211 238 222 215 208